25-12-2023, 00:00:05,    207,    5.3,   10.2,   0.00,   0.00, 1004.2,    0.3, -999.0
25-12-2023, 00:00:16,    220,    2.4,   10.2,   0.00,   0.00, 1004.2,    0.6, -999.0
25-12-2023, 00:00:26,    225,    4.0,   10.2,   0.00,   0.00, 1004.1,    0.5, -999.0
25-12-2023, 00:00:35,    245,    3.2,   10.2,   0.00,   0.00, 1004.2,    0.5, -999.0
25-12-2023, 00:00:45,    224,    5.1,   10.2,   0.00,   0.00, 1004.2,    0.8, -999.0
25-12-2023, 00:00:56,    237,    6.8,   10.2,   0.00,   0.00, 1004.2,    0.4, -999.0
25-12-2023, 00:01:05,    231,    7.1,   10.3,   0.00,   0.00, 1004.2,    0.5, -999.0
25-12-2023, 00:01:15,    228,    6.3,   10.2,   0.00,   0.00, 1004.2,    0.5, -999.0
25-12-2023, 00:01:25,    231,    4.9,   10.2,   0.00,   0.00, 1004.2,    0.8, -999.0
25-12-2023, 00:01:35,    213,    2.1,   10.2,   0.00,   0.00, 1004.2,    0.7, -999.0
25-12-2023, 00:01:45,    244,    3.9,   10.2,   0.00,   0.00, 1004.2,    0.8, -999.0
25-12-2023, 00:01:55,    200,    5.7,   10.2,   0.00,   0.00, 1004.2,    0.7, -999.0
25-12-2023, 00:02:06,    241,    3.1,   10.2,   0.00,   0.00, 1004.2,    0.6, -999.0
25-12-2023, 00:02:15,    228,    4.5,   10.2,   0.00,   0.00, 1004.1,    0.6, -999.0
25-12-2023, 00:02:25,    178,    4.4,   10.2,   0.00,   0.00, 1004.2,    0.6, -999.0
25-12-2023, 00:02:35,    250,    5.3,   10.2,   0.00,   0.00, 1004.2,    0.5, -999.0
25-12-2023, 00:02:45,    216,    8.5,   10.2,   0.00,   0.00, 1004.2,    0.8, -999.0
25-12-2023, 00:02:55,    214,    3.0,   10.2,   0.00,   0.00, 1004.1,    0.6, -999.0
25-12-2023, 00:03:05,    265,    3.0,   10.2,   0.00,   0.00, 1004.1,    0.6, -999.0
25-12-2023, 00:03:15,    257,    2.0,   10.2,   0.00,   0.00, 1004.1,    0.7, -999.0
25-12-2023, 00:03:25,    246,    4.6,   10.2,   0.00,   0.00, 1004.2,    0.7, -999.0
25-12-2023, 00:03:35,    249,    3.9,   10.2,   0.00,   0.00, 1004.2,    0.0, -999.0
25-12-2023, 00:03:45,    264,    3.6,   10.2,   0.00,   0.00, 1004.1,    0.7, -999.0
25-12-2023, 00:03:55,    262,    4.6,   10.2,   0.00,   0.00, 1004.1,    0.8, -999.0
25-12-2023, 00:04:05,    185,    2.8,   10.2,   0.00,   0.00, 1004.1,    0.4, -999.0
25-12-2023, 00:04:15,    203,    3.3,   10.2,   0.00,   0.00, 1004.1,    0.5, -999.0
25-12-2023, 00:04:25,    199,    2.3,   10.2,   0.00,   0.00, 1004.1,    0.5, -999.0
25-12-2023, 00:04:35,    289,    2.2,   10.3,   0.00,   0.00, 1004.1,    0.7, -999.0
25-12-2023, 00:04:45,    200,    2.9,   10.2,   0.00,   0.00, 1004.1,    0.5, -999.0
25-12-2023, 00:04:55,    260,    4.1,   10.2,   0.00,   0.00, 1004.1,    0.6, -999.0
25-12-2023, 00:05:05,    260,    1.7,   10.2,   0.00,   0.00, 1004.2,    0.5, -999.0
25-12-2023, 00:05:15,    260,    0.9,   10.2,   0.00,   0.00, 1004.1,    0.5, -999.0
25-12-2023, 00:05:25,    248,    0.9,   10.2,   0.00,   0.00, 1004.1,    0.6, -999.0
25-12-2023, 00:05:35,    250,    2.6,   10.3,   0.00,   0.00, 1004.1,    0.6, -999.0
25-12-2023, 00:05:45,    269,    3.6,   10.2,   0.00,   0.00, 1004.1,    0.7, -999.0
25-12-2023, 00:05:55,    228,    2.9,   10.2,   0.00,   0.00, 1004.1,    0.5, -999.0
25-12-2023, 00:06:05,    196,    2.5,   10.2,   0.00,   0.00, 1004.1,    0.7, -999.0
25-12-2023, 00:06:15,    196,    0.6,   10.2,   0.00,   0.00, 1004.1,    0.8, -999.0
25-12-2023, 00:06:25,    202,    0.7,   10.2,   0.00,   0.00, 1004.1,    0.8, -999.0
25-12-2023, 00:06:35,    238,    2.0,   10.2,   0.00,   0.00, 1004.1,    0.6, -999.0
25-12-2023, 00:06:45,    238,    2.8,   10.2,   0.00,   0.00, 1004.1,    0.6, -999.0
25-12-2023, 00:06:55,    223,    3.3,   10.2,   0.00,   0.00, 1004.1,    0.5, -999.0
25-12-2023, 00:07:04,    226,    3.1,   10.1,   0.00,   0.00, 1004.0,    0.6, -999.0
25-12-2023, 00:07:15,    198,    3.0,   10.3,   0.00,   0.00, 1004.1,    0.5, -999.0
25-12-2023, 00:07:25,    207,    2.5,   10.2,   0.00,   0.00, 1004.0,    0.9, -999.0
25-12-2023, 00:07:34,    207,    0.8,   10.2,   0.00,   0.00, 1004.0,    0.6, -999.0
25-12-2023, 00:07:44,    225,    1.6,   10.1,   0.00,   0.00, 1003.9,    0.5, -999.0
25-12-2023, 00:07:55,    250,    4.5,   10.2,   0.00,   0.00, 1004.0,    0.6, -999.0
25-12-2023, 00:08:04,    217,    4.8,   10.2,   0.00,   0.00, 1004.0,    0.5, -999.0
25-12-2023, 00:08:14,    266,    6.1,   10.1,   0.00,   0.00, 1004.0,    0.4, -999.0
25-12-2023, 00:08:25,    229,    1.7,   10.2,   0.00,   0.00, 1004.1,    0.5, -999.0
25-12-2023, 00:08:35,    225,    3.5,   10.2,   0.00,   0.00, 1004.0,    0.7, -999.0
25-12-2023, 00:08:44,    267,    4.7,   10.2,   0.00,   0.00, 1004.0,    0.6, -999.0
25-12-2023, 00:08:54,    211,    4.0,   10.2,   0.00,   0.00, 1004.0,    0.4, -999.0
25-12-2023, 00:09:05,    212,    0.6,   10.2,   0.00,   0.00, 1004.0,    0.5, -999.0
25-12-2023, 00:09:14,    212,    1.1,   10.2,   0.00,   0.00, 1004.0,    0.5, -999.0
25-12-2023, 00:09:24,    263,    6.4,   10.2,   0.00,   0.00, 1004.0,    0.6, -999.0
25-12-2023, 00:09:34,    226,    5.8,   10.2,   0.00,   0.00, 1004.0,    0.6, -999.0
25-12-2023, 00:09:44,    234,    5.6,   10.1,   0.00,   0.00, 1004.0,    0.6, -999.0
25-12-2023, 00:09:54,    236,    4.8,   10.2,   0.00,   0.00, 1004.0,    0.7, -999.0
25-12-2023, 00:10:04,    234,    1.3,   10.2,   0.00,   0.00, 1003.9,    0.6, -999.0
25-12-2023, 00:10:14,    233,    0.0,   10.1,   0.00,   0.00, 1003.8,    0.4, -999.0
25-12-2023, 00:10:24,    230,    0.7,   10.1,   0.00,   0.00, 1003.9,    0.5, -999.0
25-12-2023, 00:10:34,    235,    1.7,   10.2,   0.00,   0.00, 1004.0,    0.7, -999.0
25-12-2023, 00:10:44,    257,    3.3,   10.2,   0.00,   0.00, 1004.0,    0.6, -999.0
25-12-2023, 00:10:54,    250,    2.6,   10.2,   0.00,   0.00, 1003.9,    1.0, -999.0
25-12-2023, 00:11:04,    215,    2.3,   10.2,   0.00,   0.00, 1004.0,    1.2, -999.0
25-12-2023, 00:11:14,    295,    1.2,   10.2,   0.00,   0.00, 1003.9,    0.9, -999.0
25-12-2023, 00:11:24,    322,    1.9,   10.2,   0.00,   0.00, 1003.9,    0.1, -999.0
25-12-2023, 00:11:34,    249,    2.6,   10.2,   0.00,   0.00, 1004.0,    0.9, -999.0
25-12-2023, 00:11:44,    258,    6.9,   10.2,   0.00,   0.00, 1004.0,    0.6, -999.0
25-12-2023, 00:11:54,    259,    6.0,   10.2,   0.00,   0.00, 1003.9,    0.6, -999.0
25-12-2023, 00:12:04,    259,    5.5,   10.2,   0.00,   0.00, 1003.9,    0.6, -999.0
25-12-2023, 00:12:14,    247,    5.0,   10.2,   0.00,   0.00, 1003.9,    0.7, -999.0
25-12-2023, 00:12:24,    222,    5.2,   10.2,   0.00,   0.00, 1003.9,    0.8, -999.0
25-12-2023, 00:12:34,    247,    4.8,   10.2,   0.00,   0.00, 1004.0,    0.5, -999.0
25-12-2023, 00:12:44,    228,    4.3,   10.2,   0.00,   0.00, 1004.0,    0.6, -999.0
25-12-2023, 00:12:54,    235,    3.1,   10.2,   0.00,   0.00, 1004.0,    0.4, -999.0
25-12-2023, 00:13:04,    222,    3.2,   10.2,   0.00,   0.00, 1004.0,    0.7, -999.0
25-12-2023, 00:13:14,    331,    1.8,   10.2,   0.00,   0.00, 1004.0,    0.6, -999.0
25-12-2023, 00:13:24,    234,    1.8,   10.2,   0.00,   0.00, 1004.0,    0.7, -999.0
25-12-2023, 00:13:34,    240,    3.8,   10.2,   0.00,   0.00, 1003.9,    0.8, -999.0
25-12-2023, 00:13:44,    239,    1.5,   10.2,   0.00,   0.00, 1004.0,    0.6, -999.0
25-12-2023, 00:13:54,    201,    1.1,   10.2,   0.00,   0.00, 1003.9,    0.6, -999.0
25-12-2023, 00:14:03,    250,    2.1,   10.2,   0.00,   0.00, 1003.9,    0.4, -999.0
25-12-2023, 00:14:14,    230,    2.3,   10.2,   0.00,   0.00, 1003.9,    0.8, -999.0
25-12-2023, 00:14:24,    247,    1.7,   10.2,   0.00,   0.00, 1003.9,    0.5, -999.0
25-12-2023, 00:14:34,    182,    0.9,   10.1,   0.00,   0.00, 1003.8,    0.6, -999.0
25-12-2023, 00:14:44,    178,    0.6,   10.2,   0.00,   0.00, 1003.8,    0.7, -999.0
25-12-2023, 00:14:54,    187,    1.8,   10.2,   0.00,   0.00, 1003.8,    0.6, -999.0
25-12-2023, 00:15:04,    231,    1.3,   10.2,   0.00,   0.00, 1003.9,    0.6, -999.0
25-12-2023, 00:15:13,    235,    2.9,   10.2,   0.00,   0.00, 1003.9,    0.5, -999.0
25-12-2023, 00:15:24,    199,    3.2,   10.2,   0.00,   0.00, 1003.9,    0.4, -999.0
25-12-2023, 00:15:34,    230,    3.6,   10.2,   0.00,   0.00, 1003.9,    0.7, -999.0
25-12-2023, 00:15:43,    211,    2.5,   10.2,   0.00,   0.00, 1003.9,    0.8, -999.0
25-12-2023, 00:15:53,    267,    3.3,   10.2,   0.00,   0.00, 1003.9,    0.5, -999.0
25-12-2023, 00:16:04,    256,    4.9,   10.2,   0.00,   0.00, 1003.8,    0.6, -999.0
25-12-2023, 00:16:13,    232,    3.8,   10.1,   0.00,   0.00, 1003.8,    0.6, -999.0
25-12-2023, 00:16:23,    229,    6.5,   10.2,   0.00,   0.00, 1003.9,    0.6, -999.0
25-12-2023, 00:16:33,    243,    4.5,   10.2,   0.00,   0.00, 1003.9,    0.6, -999.0
25-12-2023, 00:16:44,    240,    5.5,   10.3,   0.00,   0.00, 1003.9,    0.5, -999.0
25-12-2023, 00:16:53,    206,    4.2,   10.2,   0.00,   0.00, 1003.9,    0.6, -999.0
25-12-2023, 00:17:03,    233,    5.3,   10.3,   0.00,   0.00, 1003.8,    0.4, -999.0
25-12-2023, 00:17:14,    278,    3.5,   10.2,   0.00,   0.00, 1003.9,    0.7, -999.0
25-12-2023, 00:17:23,    257,    6.2,   10.2,   0.00,   0.00, 1003.9,    0.5, -999.0
25-12-2023, 00:17:33,    224,    8.4,   10.2,   0.00,   0.00, 1003.8,    0.6, -999.0
25-12-2023, 00:17:43,    257,    7.6,   10.2,   0.00,   0.00, 1003.9,    0.6, -999.0
25-12-2023, 00:17:53,    263,    7.0,   10.3,   0.00,   0.00, 1003.8,    0.4, -999.0
25-12-2023, 00:18:03,    249,    6.9,   10.3,   0.00,   0.00, 1003.8,    0.8, -999.0
25-12-2023, 00:18:13,    252,    4.6,   10.2,   0.00,   0.00, 1003.9,    0.6, -999.0
25-12-2023, 00:18:23,    222,    5.7,   10.2,   0.00,   0.00, 1003.8,    0.8, -999.0
25-12-2023, 00:18:33,    200,    1.7,   10.3,   0.00,   0.00, 1003.8,    0.7, -999.0
25-12-2023, 00:18:43,    226,    2.8,   10.2,   0.00,   0.00, 1003.8,    0.7, -999.0
25-12-2023, 00:18:53,    219,    3.0,   10.3,   0.00,   0.00, 1003.9,    0.4, -999.0
25-12-2023, 00:19:03,    296,    1.3,   10.2,   0.00,   0.00, 1003.8,    0.4, -999.0
25-12-2023, 00:19:13,    218,    0.6,   10.2,   0.00,   0.00, 1003.7,    0.5, -999.0
25-12-2023, 00:19:23,    202,    2.8,   10.2,   0.00,   0.00, 1003.8,    0.6, -999.0
25-12-2023, 00:19:33,    251,    2.7,   10.2,   0.00,   0.00, 1003.9,    0.6, -999.0
25-12-2023, 00:19:43,    253,    0.7,   10.3,   0.00,   0.00, 1003.8,    0.3, -999.0
25-12-2023, 00:19:53,    252,    0.1,   10.2,   0.00,   0.00, 1003.7,    0.5, -999.0
25-12-2023, 00:20:03,    201,    2.1,   10.2,   0.00,   0.00, 1003.9,    0.9, -999.0
25-12-2023, 00:20:13,    243,    0.5,   10.2,   0.00,   0.00, 1003.8,    1.1, -999.0
25-12-2023, 00:20:23,    239,    3.5,   10.2,   0.00,   0.00, 1003.8,    0.5, -999.0
25-12-2023, 00:20:33,    207,    2.4,   10.2,   0.00,   0.00, 1003.8,    0.8, -999.0
25-12-2023, 00:20:43,    281,    1.9,   10.2,   0.00,   0.00, 1003.8,    0.3, -999.0
25-12-2023, 00:20:53,    280,    0.8,   10.2,   0.00,   0.00, 1003.8,    0.7, -999.0
25-12-2023, 00:21:03,    247,    0.0,   10.2,   0.00,   0.00, 1003.7,    0.4, -999.0
25-12-2023, 00:21:13,    248,    2.5,   10.2,   0.00,   0.00, 1003.9,    1.0, -999.0
25-12-2023, 00:21:23,    275,    3.2,   10.2,   0.00,   0.00, 1003.9,    0.4, -999.0
25-12-2023, 00:21:33,    212,    3.4,   10.1,   0.00,   0.00, 1003.8,    0.9, -999.0
25-12-2023, 00:21:43,    201,    1.9,   10.2,   0.00,   0.00, 1003.8,    0.7, -999.0
25-12-2023, 00:21:53,    252,    0.9,   10.2,   0.00,   0.00, 1003.9,    0.4, -999.0
25-12-2023, 00:22:03,    221,    4.0,   10.2,   0.00,   0.00, 1003.9,    0.7, -999.0
25-12-2023, 00:22:12,    217,    3.3,   10.2,   0.00,   0.00, 1003.9,    0.6, -999.0
25-12-2023, 00:22:23,    194,    4.5,   10.1,   0.00,   0.00, 1003.9,    0.6, -999.0
25-12-2023, 00:22:33,    233,    3.0,   10.2,   0.00,   0.00, 1003.9,    0.6, -999.0
25-12-2023, 00:22:42,    228,    3.7,   10.2,   0.00,   0.00, 1004.0,    0.8, -999.0
25-12-2023, 00:22:52,    232,    3.2,   10.2,   0.00,   0.00, 1003.9,    0.3, -999.0
25-12-2023, 00:23:03,    237,    1.4,   10.2,   0.00,   0.00, 1003.9,    0.6, -999.0
25-12-2023, 00:23:13,    234,    0.7,   10.2,   0.00,   0.00, 1003.9,    0.3, -999.0
25-12-2023, 00:23:22,    253,    1.4,   10.2,   0.00,   0.00, 1003.9,    0.6, -999.0
25-12-2023, 00:23:33,    253,    1.9,   10.3,   0.00,   0.00, 1003.9,    0.6, -999.0
25-12-2023, 00:23:43,    269,    2.9,   10.3,   0.00,   0.00, 1003.9,    0.6, -999.0
25-12-2023, 00:23:52,    216,    4.2,   10.2,   0.00,   0.00, 1003.9,    0.3, -999.0
25-12-2023, 00:24:02,    217,    4.5,   10.2,   0.00,   0.00, 1003.9,    0.5, -999.0
25-12-2023, 00:24:13,    239,    3.7,   10.2,   0.00,   0.00, 1003.9,    0.3, -999.0
25-12-2023, 00:24:22,    220,    2.3,   10.2,   0.00,   0.00, 1003.9,    0.5, -999.0
25-12-2023, 00:24:32,    225,    0.7,   10.1,   0.00,   0.00, 1003.9,    0.6, -999.0
25-12-2023, 00:24:42,    226,    1.8,   10.2,   0.00,   0.00, 1003.9,    0.7, -999.0
25-12-2023, 00:24:53,    219,    4.2,   10.2,   0.00,   0.00, 1003.9,    0.5, -999.0
25-12-2023, 00:25:02,    267,    2.9,   10.2,   0.00,   0.00, 1003.9,    0.9, -999.0
25-12-2023, 00:25:12,    262,    5.2,   10.2,   0.00,   0.00, 1003.9,    0.3, -999.0
25-12-2023, 00:25:22,    262,    7.0,   10.2,   0.00,   0.00, 1003.9,    0.5, -999.0
25-12-2023, 00:25:32,    230,    3.7,   10.2,   0.00,   0.00, 1003.9,    0.7, -999.0
25-12-2023, 00:25:42,    239,    2.2,   10.2,   0.00,   0.00, 1003.8,    0.6, -999.0
25-12-2023, 00:25:52,    228,    2.5,   10.2,   0.00,   0.00, 1003.9,    0.4, -999.0
25-12-2023, 00:26:02,    241,    2.7,   10.3,   0.00,   0.00, 1003.9,    0.6, -999.0
25-12-2023, 00:26:12,    183,    2.8,   10.2,   0.00,   0.00, 1003.8,    0.4, -999.0
25-12-2023, 00:26:22,    193,    4.3,   10.2,   0.00,   0.00, 1003.9,    1.0, -999.0
25-12-2023, 00:26:32,    222,    2.1,   10.2,   0.00,   0.00, 1003.9,    0.2, -999.0
25-12-2023, 00:26:42,    216,    2.5,   10.2,   0.00,   0.00, 1003.8,    0.2, -999.0
25-12-2023, 00:26:52,    227,    3.1,   10.2,   0.00,   0.00, 1003.9,    0.9, -999.0
25-12-2023, 00:27:02,    251,    3.3,   10.2,   0.00,   0.00, 1003.9,    0.6, -999.0
25-12-2023, 00:27:12,    155,    2.8,   10.2,   0.00,   0.00, 1003.9,    0.9, -999.0
25-12-2023, 00:27:22,    252,    1.3,   10.2,   0.00,   0.00, 1003.9,    0.3, -999.0
25-12-2023, 00:27:32,    226,    2.5,   10.2,   0.00,   0.00, 1003.9,    0.4, -999.0
25-12-2023, 00:27:42,    301,    2.8,   10.2,   0.00,   0.00, 1003.9,    1.2, -999.0
25-12-2023, 00:27:52,    204,    1.9,   10.2,   0.00,   0.00, 1003.9,    0.3, -999.0
25-12-2023, 00:28:02,    254,    5.3,   10.2,   0.00,   0.00, 1004.0,    0.9, -999.0
25-12-2023, 00:28:12,    283,    6.5,   10.2,   0.00,   0.00, 1003.9,    0.3, -999.0
25-12-2023, 00:28:22,    300,    4.2,   10.2,   0.00,   0.00, 1003.8,    0.6, -999.0
25-12-2023, 00:28:32,    253,    3.3,   10.2,   0.00,   0.00, 1003.9,    0.6, -999.0
25-12-2023, 00:28:42,    243,    3.7,   10.2,   0.00,   0.00, 1004.0,    0.6, -999.0
25-12-2023, 00:28:52,    277,    2.7,   10.2,   0.00,   0.00, 1003.9,    0.8, -999.0
25-12-2023, 00:29:02,    260,    5.3,   10.2,   0.00,   0.00, 1003.9,    0.6, -999.0
25-12-2023, 00:29:12,    241,    4.0,   10.3,   0.00,   0.00, 1003.9,    0.4, -999.0
25-12-2023, 00:29:22,    232,    4.9,   10.2,   0.00,   0.00, 1003.9,    0.6, -999.0
25-12-2023, 00:29:32,    223,    5.4,   10.3,   0.00,   0.00, 1003.9,    0.4, -999.0
25-12-2023, 00:29:42,    234,    0.7,   10.2,   0.00,   0.00, 1003.9,    0.6, -999.0
25-12-2023, 00:29:52,    268,    1.3,   10.3,   0.00,   0.00, 1003.8,    1.0, -999.0
25-12-2023, 00:30:02,    267,    0.3,   10.2,   0.00,   0.00, 1003.8,    0.6, -999.0
25-12-2023, 00:30:12,    234,    0.8,   10.2,   0.00,   0.00, 1003.9,    0.5, -999.0
25-12-2023, 00:30:21,    182,    0.9,   10.3,   0.00,   0.00, 1003.9,    0.6, -999.0
25-12-2023, 00:30:32,    274,    0.6,   10.3,   0.00,   0.00, 1003.9,    0.4, -999.0
25-12-2023, 00:30:42,    254,    1.0,   10.3,   0.00,   0.00, 1003.9,    0.5, -999.0
25-12-2023, 00:30:51,    242,    5.2,   10.2,   0.00,   0.00, 1003.9,    0.6, -999.0
25-12-2023, 00:31:01,    235,    2.8,   10.2,   0.00,   0.00, 1003.9,    0.8, -999.0
25-12-2023, 00:31:12,    226,    3.3,   10.2,   0.00,   0.00, 1003.9,    0.8, -999.0
25-12-2023, 00:31:22,    264,    3.0,   10.3,   0.00,   0.00, 1003.9,    0.8, -999.0
25-12-2023, 00:31:31,    242,    2.5,   10.3,   0.00,   0.00, 1003.9,    0.7, -999.0
25-12-2023, 00:31:41,    229,    5.1,   10.3,   0.00,   0.00, 1003.9,    0.8, -999.0
25-12-2023, 00:31:52,    256,    5.4,   10.2,   0.00,   0.00, 1003.9,    0.6, -999.0
25-12-2023, 00:32:01,    219,    5.1,   10.1,   0.00,   0.00, 1003.9,    0.6, -999.0
25-12-2023, 00:32:11,    239,    6.9,   10.2,   0.00,   0.00, 1003.9,    0.5, -999.0
25-12-2023, 00:32:21,    260,    5.8,   10.3,   0.00,   0.00, 1003.9,    0.7, -999.0
25-12-2023, 00:32:31,    231,    4.1,   10.2,   0.00,   0.00, 1003.9,    0.6, -999.0
25-12-2023, 00:32:41,    266,    4.5,   10.2,   0.00,   0.00, 1003.9,    0.4, -999.0
25-12-2023, 00:32:51,    232,    3.5,   10.2,   0.00,   0.00, 1004.0,    0.6, -999.0
25-12-2023, 00:33:02,    243,    5.4,   10.3,   0.00,   0.00, 1004.0,    0.6, -999.0
25-12-2023, 00:33:11,    249,    4.4,   10.2,   0.00,   0.00, 1003.9,    0.6, -999.0
25-12-2023, 00:33:21,    238,    3.9,   10.2,   0.00,   0.00, 1003.9,    0.3, -999.0
25-12-2023, 00:33:31,    233,    2.5,   10.2,   0.00,   0.00, 1003.9,    0.7, -999.0
25-12-2023, 00:33:41,    232,    0.9,   10.2,   0.00,   0.00, 1003.9,    0.6, -999.0
25-12-2023, 00:33:51,    206,    3.4,   10.2,   0.00,   0.00, 1003.9,    0.4, -999.0
25-12-2023, 00:34:01,    204,    1.2,   10.2,   0.00,   0.00, 1003.9,    0.6, -999.0
25-12-2023, 00:34:11,    319,    0.8,   10.2,   0.00,   0.00, 1003.9,    0.9, -999.0
25-12-2023, 00:34:21,    267,    2.1,   10.2,   0.00,   0.00, 1003.8,    0.6, -999.0
25-12-2023, 00:34:31,    149,    5.3,   10.2,   0.00,   0.00, 1003.9,    0.5, -999.0
25-12-2023, 00:34:41,    231,    3.2,   10.2,   0.00,   0.00, 1003.9,    1.4, -999.0
25-12-2023, 00:34:51,    190,    5.3,   10.2,   0.00,   0.00, 1003.9,    0.8, -999.0
25-12-2023, 00:35:01,    268,    4.7,   10.2,   0.00,   0.00, 1003.8,    0.9, -999.0
25-12-2023, 00:35:11,    260,    5.5,   10.3,   0.00,   0.00, 1003.9,    0.5, -999.0
25-12-2023, 00:35:21,    227,    4.6,   10.3,   0.00,   0.00, 1003.9,    0.5, -999.0
25-12-2023, 00:35:31,    263,    2.9,   10.2,   0.00,   0.00, 1003.9,    0.3, -999.0
25-12-2023, 00:35:41,    248,    1.4,   10.3,   0.00,   0.00, 1003.9,    0.9, -999.0
25-12-2023, 00:35:51,    195,    4.6,   10.2,   0.00,   0.00, 1003.9,    0.6, -999.0
25-12-2023, 00:36:01,    241,    3.9,   10.2,   0.00,   0.00, 1003.9,    0.8, -999.0
25-12-2023, 00:36:11,    255,    2.9,   10.2,   0.00,   0.00, 1003.9,    0.7, -999.0
25-12-2023, 00:36:21,    254,    3.3,   10.2,   0.00,   0.00, 1003.9,    0.5, -999.0
25-12-2023, 00:36:31,    255,    3.5,   10.2,   0.00,   0.00, 1003.9,    0.5, -999.0
25-12-2023, 00:36:41,    210,    1.1,   10.2,   0.00,   0.00, 1003.9,    0.5, -999.0
25-12-2023, 00:36:51,    202,    2.3,   10.2,   0.00,   0.00, 1003.9,    0.4, -999.0
25-12-2023, 00:37:01,    276,    4.8,   10.2,   0.00,   0.00, 1003.9,    0.6, -999.0
25-12-2023, 00:37:11,    253,    4.8,   10.2,   0.00,   0.00, 1003.8,    0.7, -999.0
25-12-2023, 00:37:20,    233,    3.9,   10.2,   0.00,   0.00, 1003.8,    0.9, -999.0
25-12-2023, 00:37:31,    248,    1.6,   10.2,   0.00,   0.00, 1003.8,    0.5, -999.0
25-12-2023, 00:37:41,    253,    1.3,   10.1,   0.00,   0.00, 1003.9,    0.4, -999.0
25-12-2023, 00:37:51,    168,    1.2,   10.2,   0.00,   0.00, 1003.9,    0.5, -999.0
25-12-2023, 00:38:00,    266,    1.6,   10.3,   0.00,   0.00, 1003.8,    0.3, -999.0
25-12-2023, 00:38:11,    278,    1.1,   10.3,   0.00,   0.00, 1003.9,    0.6, -999.0
25-12-2023, 00:38:21,    241,    2.0,   10.3,   0.00,   0.00, 1003.9,    0.4, -999.0
25-12-2023, 00:38:30,    223,    4.0,   10.3,   0.00,   0.00, 1004.0,    0.7, -999.0
25-12-2023, 00:38:40,    246,    4.0,   10.2,   0.00,   0.00, 1003.9,    0.4, -999.0
25-12-2023, 00:38:51,    248,    3.9,   10.2,   0.00,   0.00, 1003.9,    0.7, -999.0
25-12-2023, 00:39:00,    229,    2.0,   10.2,   0.00,   0.00, 1003.9,    0.6, -999.0
25-12-2023, 00:39:10,    258,    3.6,   10.2,   0.00,   0.00, 1004.0,    0.4, -999.0
25-12-2023, 00:39:21,    224,    5.3,   10.2,   0.00,   0.00, 1003.9,    0.6, -999.0
25-12-2023, 00:39:31,    231,    6.1,   10.2,   0.00,   0.00, 1003.9,    0.5, -999.0
25-12-2023, 00:39:40,    240,    4.1,   10.2,   0.00,   0.00, 1003.9,    0.3, -999.0
25-12-2023, 00:39:50,    223,    6.6,   10.2,   0.00,   0.00, 1003.9,    0.5, -999.0
25-12-2023, 00:40:01,    258,    4.9,   10.2,   0.00,   0.00, 1003.9,    0.5, -999.0
25-12-2023, 00:40:10,    221,    3.0,   10.2,   0.00,   0.00, 1003.9,    0.7, -999.0
25-12-2023, 00:40:20,    247,    6.0,   10.2,   0.00,   0.00, 1003.9,    0.4, -999.0
25-12-2023, 00:40:30,    231,    6.6,   10.2,   0.00,   0.00, 1004.0,    0.5, -999.0
25-12-2023, 00:40:40,    237,    3.9,   10.2,   0.00,   0.00, 1003.9,    0.7, -999.0
25-12-2023, 00:40:50,    257,    2.5,   10.2,   0.00,   0.00, 1003.9,    0.6, -999.0
25-12-2023, 00:41:00,    286,    3.7,   10.3,   0.00,   0.00, 1003.9,    0.4, -999.0
25-12-2023, 00:41:10,    295,    0.4,   10.1,   0.00,   0.00, 1003.8,    0.5, -999.0
25-12-2023, 00:41:20,    235,    1.6,   10.2,   0.00,   0.00, 1003.9,    0.5, -999.0
25-12-2023, 00:41:30,    207,    1.4,   10.2,   0.00,   0.00, 1003.9,    0.5, -999.0
25-12-2023, 00:41:40,    206,    0.4,   10.2,   0.00,   0.00, 1003.8,    0.6, -999.0
25-12-2023, 00:41:50,    207,    0.0,   10.1,   0.00,   0.00, 1003.7,    0.5, -999.0
25-12-2023, 00:42:00,    207,    0.1,   10.1,   0.00,   0.00, 1003.8,    0.5, -999.0
25-12-2023, 00:42:10,    266,    2.5,   10.2,   0.00,   0.00, 1003.9,    0.5, -999.0
25-12-2023, 00:42:20,    258,    3.9,   10.2,   0.00,   0.00, 1003.9,    0.8, -999.0
25-12-2023, 00:42:30,    260,    5.3,   10.2,   0.00,   0.00, 1003.9,    0.6, -999.0
25-12-2023, 00:42:40,    250,    2.3,   10.3,   0.00,   0.00, 1003.9,    0.6, -999.0
25-12-2023, 00:42:50,    277,    0.9,   10.2,   0.00,   0.00, 1003.9,    0.7, -999.0
25-12-2023, 00:43:00,    251,    1.1,   10.2,   0.00,   0.00, 1003.9,    0.7, -999.0
25-12-2023, 00:43:10,    265,    1.2,   10.2,   0.00,   0.00, 1003.8,    0.8, -999.0
25-12-2023, 00:43:20,    264,    1.2,   10.2,   0.00,   0.00, 1003.9,    0.5, -999.0
25-12-2023, 00:43:30,    265,    0.1,   10.1,   0.00,   0.00, 1003.8,    0.4, -999.0
25-12-2023, 00:43:40,    212,    1.5,   10.1,   0.00,   0.00, 1003.8,    0.3, -999.0
25-12-2023, 00:43:50,    204,    2.1,   10.3,   0.00,   0.00, 1003.9,    0.7, -999.0
25-12-2023, 00:44:00,    205,    0.4,   10.2,   0.00,   0.00, 1003.9,    0.4, -999.0
25-12-2023, 00:44:10,    206,    0.1,   10.2,   0.00,   0.00, 1003.8,    0.5, -999.0
25-12-2023, 00:44:20,    233,    1.0,   10.1,   0.00,   0.00, 1003.9,    0.6, -999.0
25-12-2023, 00:44:30,    258,    1.1,   10.2,   0.00,   0.00, 1003.9,    0.5, -999.0
25-12-2023, 00:44:40,    260,    0.2,   10.2,   0.00,   0.00, 1003.9,    0.7, -999.0
25-12-2023, 00:44:50,    261,    0.5,   10.2,   0.00,   0.00, 1003.8,    0.5, -999.0
25-12-2023, 00:44:59,    254,    1.2,   10.2,   0.00,   0.00, 1003.9,    0.4, -999.0
25-12-2023, 00:45:10,    225,    2.9,   10.2,   0.00,   0.00, 1003.8,    0.5, -999.0
25-12-2023, 00:45:20,    249,    1.0,   10.3,   0.00,   0.00, 1003.8,    0.6, -999.0
25-12-2023, 00:45:29,    285,    1.8,   10.2,   0.00,   0.00, 1003.9,    0.6, -999.0
25-12-2023, 00:45:40,    197,    0.9,   10.2,   0.00,   0.00, 1003.9,    0.6, -999.0
25-12-2023, 00:45:50,    243,    4.7,   10.2,   0.00,   0.00, 1003.9,    0.6, -999.0
25-12-2023, 00:46:00,    241,    0.8,   10.2,   0.00,   0.00, 1003.9,    0.6, -999.0
25-12-2023, 00:46:09,    267,    1.6,   10.2,   0.00,   0.00, 1003.8,    0.5, -999.0
25-12-2023, 00:46:20,    272,    2.6,   10.3,   0.00,   0.00, 1003.9,    0.5, -999.0
25-12-2023, 00:46:30,    285,    3.2,   10.2,   0.00,   0.00, 1003.9,    0.5, -999.0
25-12-2023, 00:46:39,    254,    4.2,   10.2,   0.00,   0.00, 1003.9,    0.5, -999.0
25-12-2023, 00:46:49,    218,    5.5,   10.2,   0.00,   0.00, 1003.8,    0.5, -999.0